Regional Weather Roundup
Issued by NWS

Home | Current Version | Previous Version | Graphics & Text | Print | Product List | Glossary On
Versions: 1 2 3 4 5 6 7 8 9 10 11 12 13 14 15 16 17 18 19 20 21 22 23 24 25 26 27 28 29 30 31 32 33 34 35 36 37 38 39 40 41 42 43 44 45 46 47 48 49 50
000
ASUS43 KMKX 182011
RWRWI

WISCONSIN REGIONAL WEATHER ROUNDUP
NATIONAL WEATHER SERVICE MILWAUKEE/SULLIVAN WI
300 PM CDT FRI APR 18 2014

NOTE: "FAIR" INDICATES FEW OR NO CLOUDS BELOW 12,000 FEET WITH NO
SIGNIFICANT WEATHER AND/OR OBSTRUCTIONS TO VISIBILITY.

WIZ001-002-006>008-014>016-023>028-182100-
NORTHWEST WISCONSIN

CITY           SKY/WX    TMP DP  RH WIND       PRES   REMARKS
SUPERIOR ARPT  SUNNY     37  24  57 NE9       30.39F WCI  31
ASHLAND        SUNNY     39  23  52 NE7       30.41F WCI  34
HAYWARD        SUNNY     44  18  35 E7        30.36F
SIREN          CLOUDY    46  19  34 E7        30.36F
RICE LAKE      PTSUNNY   44  25  46 CALM      30.37F
LADYSMITH      PTSUNNY   45  18  33 CALM      30.38F
EAU CLAIRE     SUNNY     50  20  30 VRB5      30.35F
MENOMONIE      CLEAR     49  24  36 E7        30.36F
NEW RICHMOND   SUNNY     49  27  42 E7        30.34F
OSCEOLA        SUNNY     45  28  51 NE8       30.37F
$$

WIZ003>005-009-010-017-018-182100-
NORTH CENTRAL WISCONSIN

CITY           SKY/WX    TMP DP  RH WIND       PRES   REMARKS
WOODRUFF       SUNNY     46  19  34 CALM      30.36S
RHINELANDER    SUNNY     40  16  37 VRB5      30.36S
EAGLE RIVER    SUNNY     39  18  43 N7        30.36S WCI  34
LAND O LAKES   SUNNY     39  22  50 NW7       30.37S WCI  34
PHILLIPS       MOSUNNY   40  19  43 N7        30.35F WCI  35
TOMAHAWK       SUNNY     42  16  34 N8        30.36S
MEDFORD        MOSUNNY   44  19  37 N3        30.36R
MERRILL        SUNNY     45  22  41 CALM      30.35F
$$

WIZ029-030-035-036-043>047-182100-
CENTRAL WISCONSIN

CITY           SKY/WX    TMP DP  RH WIND       PRES   REMARKS
WAUSAU         SUNNY     48  18  30 N5        30.33F
MOSINEE        SUNNY     46  25  42 NW8       30.36F
MARSHFIELD     SUNNY     49  23  36 VRB5      30.35R
STEVENS POINT  SUNNY     47  18  31 N8        30.35S
WAUPACA        SUNNY     54  16  22 N5G10     30.35F
WAUTOMA        SUNNY     53  21  28 W7        30.35S
WISC RAPIDS    SUNNY     51  21  30 NW9       30.36S
CAMP DOUGLAS   SUNNY     53  23  32 VRB3      30.35S
$$

WIZ011>013-019>022-031-037>040-048>050-182100-
NORTHEAST WISCONSIN

CITY           SKY/WX    TMP DP  RH WIND       PRES   REMARKS
ANTIGO         SUNNY     42  22  45 N5        30.35S
STURGEON BAY   SUNNY     43  25  49 N9        30.38S
GREEN BAY      SUNNY     47  29  49 E6        30.36
MANITOWOC      SUNNY     42  31  64 SE14      30.38R
APPLETON       MOSUNNY   48  25  40 N9        30.36S
CLINTONVILLE   SUNNY     50  21  32 NE3       30.35R
OSHKOSH        SUNNY     47  28  47 VRB6      30.36F
$$

WIZ032>034-041-042-053>061-182100-
SOUTHWEST WISCONSIN

CITY           SKY/WX    TMP DP  RH WIND       PRES   REMARKS
LA CROSSE      SUNNY     53  23  31 VRB5      30.35F
SPARTA         SUNNY     53  20  27 SW3       30.35F
VIROQUA        FAIR      51  25  35 NE3       30.33F
BOSCOBEL       SUNNY     57  22  25 N3        30.34F
PRAIRIE DU CHI SUNNY     55  19  24 SW5       30.33F
PLATTEVILLE    FAIR      55  28  35 CALM      30.33F
$$

WIZ056-057-062-063-064-067-068-182100-
SOUTH CENTRAL WISCONSIN

CITY           SKY/WX    TMP DP  RH WIND       PRES   REMARKS
BARABOO/DELLS  SUNNY     52  24  33 CALM      30.34S
LONE ROCK      SUNNY     54  27  35 CALM      30.34F
WATERTOWN      SUNNY     50  30  46 NW3       30.33F
MADISON        MOSUNNY   53  28  38 VRB5      30.34F
MIDDLETON      FAIR      54  26  34 N5        30.35S
MONROE           N/A     55  28  35 CALM      30.32S
JANESVILLE     SUNNY     57  27  30 CALM      30.32F
$$

WIZ051-052-058>065-066-070>072-182100-
SOUTHEAST WISCONSIN

CITY           SKY/WX    TMP DP  RH WIND       PRES   REMARKS
MILWAUKEE      MOSUNNY   43  31  62 NE10      30.37F
WAUKESHA       MOSUNNY   50  32  50 CALM      30.36
MILWAUKEE/TIMM SUNNY     45  28  53 E7        30.36F
RACINE         SUNNY     44  30  57 NE10      30.38F
BURLINGTON     SUNNY     55  30  38 N3        30.32F
KENOSHA        SUNNY     46  33  60 NE12      30.35F
FOND DU LAC    SUNNY     46  29  51 NE9       30.36F
SHEBOYGAN      SUNNY     42  31  64 E12       30.37R
WEST BEND      SUNNY     50  32  50 E6        30.35S
JUNEAU         SUNNY     49  24  37 CALM      30.35F
$$

LSZ147-162-182100-
LAKE SUPERIOR

STATION/POSITION TIME  TEMP    WIND        PRES    WAVE
                       AIR SEA DIR/SP/G            HT/PER
                 (UTC) (F)     (DEG/KT/KT) (MB)    (FT/S)
DEVILS ISLAND    1900   34      CALM  /  1 1031.7R
PORT WING        1900   34      20/ 10/ 11 1030.1
SAXON HARBOR     1900           40/  6/  7 1030.5
$$

LMZ867-665-643>646-182100-
LAKE MICHIGAN

STATION/POSITION TIME  TEMP    WIND        PRES    WAVE
                       AIR SEA DIR/SP/G            HT/PER
                 (UTC) (F)     (DEG/KT/KT) (MB)    (FT/S)
NORTHPORT PIER   1900   37     330/  6/  7 1028.4F
SISTER BAY       1923   55        CALM       N/A
KEWAUNEE LAKESHO 1900   38      90/  7/  9 1029.3R
SHEBOYGAN LAKESH 2000   36      70/ 10/ 11 1029.6R
PORT WASHINGTON  1900   37      80/  6/  9 1029.1S
MILWAUKEE LAKESH 1900   36      50/ 10/ 12   N/A
KENOSHA   LAKESH 2000   36      50/ 13/ 15   N/A
$$

TC  - TEMPERATURE IN CELSIUS
VSB - VISIBILITY IN STATUTE MILES
WCI - WIND CHILL INDEX
HX  - HEAT INDEX




USA.gov is the U.S. government's official web portal to all federal, state and local government web resources and services.